Folgueroles





Hora UTC 21:15
Temperatura 19.5 ºC
Humitat 78.0 %
Pressió 1020.0 hPa
Pluja 0.2 mm
Velocitat vent 0.0 km/h
Direcció vent S

Dades diàries 2022-08-19



Hora UTC (hivern +1h; estiu +2h)
Temperatura (ºC) Humitat (%) Pressió (hPa) Velocitat vent (km/h) Precipitació (mm)
Hora UTC Aire Humitat Pressió Vel. Dir. Vel. Max Dir. Intent. màx 5 min.
00:05 13.4 93.0 1017.7 0.0 NE 0.0 0.0
00:10 13.4 93.0 1017.8 0.0 NE 0.0 0.0
00:15 13.4 93.0 1017.7 0.0 NE 0.0 0.0
00:20 13.5 94.0 1017.7 0.0 NE 0.0 0.0
00:25 13.6 93.0 1017.7 0.0 NE 0.0 0.0
00:30 13.5 93.0 1017.5 0.0 NE 0.0 0.0
00:35 13.4 93.0 1017.8 0.0 NE 0.0 0.0
00:40 13.5 94.0 1017.8 0.0 NE 0.0 0.0
00:45 13.6 94.0 1017.8 0.0 NE 0.0 0.0
00:50 13.6 94.0 1017.8 0.0 NE 0.0 0.0
00:55 13.7 94.0 1017.8 0.0 NE 0.0 0.0
01:00 13.7 94.0 1017.8 0.0 NE 0.0 0.0
01:05 13.8 94.0 1017.8 0.0 NE 0.0 0.0
01:10 13.8 94.0 1017.6 0.0 NE 0.0 0.0
01:15 13.8 94.0 1017.7 0.0 NE 0.0 0.0
01:20 13.7 94.0 1017.7 0.0 NE 0.0 0.0
01:25 13.6 94.0 1017.6 0.0 NE 0.0 0.0
01:30 13.6 94.0 1017.6 0.0 NE 0.0 0.0
01:35 13.6 94.0 1017.6 0.0 NE 0.0 0.0
01:40 13.6 94.0 1017.7 0.0 NE 0.0 0.0
01:45 13.5 94.0 1017.8 0.0 NE 0.0 0.0
01:50 13.5 94.0 1017.8 0.0 NE 0.0 0.0
01:55 13.4 94.0 1017.8 0.0 NE 0.0 0.0
02:00 13.4 94.0 1017.8 0.0 NE 0.0 0.0
02:05 13.4 94.0 1018.0 0.0 NE 0.0 0.0
02:10 13.3 94.0 1018.0 0.0 NE 0.0 0.0
02:15 13.3 94.0 1018.0 0.0 NE 0.0 0.0
02:20 13.3 95.0 1018.0 0.0 NE 0.0 0.0
02:25 13.3 95.0 1017.9 0.0 NE 0.0 0.0
02:30 13.3 95.0 1017.9 0.0 NE 0.0 0.0
02:35 13.2 95.0 1017.9 0.0 NE 0.0 0.0
02:40 13.1 95.0 1018.0 0.0 NE 0.0 0.0
02:45 13.1 95.0 1017.9 0.0 NE 0.0 0.0
02:50 13.1 95.0 1017.8 0.0 NE 0.0 0.0
02:55 13.1 95.0 1017.8 0.0 NE 0.0 0.0
03:00 13.2 95.0 1018.0 0.0 W 4.8 0.0
03:05 13.1 95.0 1018.0 1.6 W 6.4 0.0
03:10 13.0 95.0 1018.1 0.0 W 6.4 0.0
03:15 12.9 95.0 1018.2 0.0 W 3.2 0.0
03:20 12.9 95.0 1018.1 1.6 W 3.2 0.0
03:25 12.9 95.0 1018.0 0.0 W 3.2 0.0
03:30 12.8 95.0 1018.1 0.0 W 3.2 0.0
03:35 12.8 95.0 1018.1 0.0 W 0.0 0.0
03:40 12.8 95.0 1018.2 0.0 W 0.0 0.0
03:45 12.8 95.0 1018.3 0.0 W 0.0 0.0
03:50 12.8 95.0 1018.4 0.0 W 3.2 0.0
03:55 12.8 95.0 1018.5 1.6 W 3.2 0.0
04:00 12.7 95.0 1018.5 1.6 W 3.2 0.0
04:05 12.6 95.0 1018.6 0.0 W 3.2 0.0
04:10 12.6 95.0 1018.4 0.0 W 0.0 0.0
04:15 12.5 95.0 1018.5 0.0 W 1.6 0.0
04:20 12.4 95.0 1018.4 0.0 W 1.6 0.0
04:25 12.4 95.0 1018.5 0.0 W 0.0 0.0
04:30 12.4 95.0 1018.5 0.0 W 0.0 0.0
04:35 12.3 95.0 1018.6 0.0 W 0.0 0.0
04:40 12.3 95.0 1018.7 3.2 W 3.2 0.0
04:45 12.3 95.0 1018.8 1.6 NE 4.8 0.0
04:50 12.2 95.0 1018.8 0.0 NE 4.8 0.0
04:55 12.1 95.0 1018.8 0.0 NE 3.2 0.0
05:00 12.1 95.0 1018.9 0.0 NE 0.0 0.0
05:05 12.1 95.0 1018.9 0.0 NE 0.0 0.0
05:10 12.1 96.0 1018.9 0.0 NE 0.0 0.0
05:15 12.2 96.0 1018.9 0.0 NE 0.0 0.0
05:20 12.2 96.0 1018.9 0.0 NE 0.0 0.0
05:25 12.2 96.0 1018.9 0.0 NE 0.0 0.0
05:30 12.2 96.0 1019.1 0.0 NE 0.0 0.0
05:35 12.2 96.0 1019.1 0.0 NE 0.0 0.0
05:40 12.2 96.0 1019.1 0.0 NE 0.0 0.0
05:45 12.3 96.0 1019.0 0.0 NE 0.0 0.0
05:50 12.3 96.0 1019.2 0.0 NE 0.0 0.0
05:55 12.3 96.0 1019.3 0.0 NE 3.2 0.0
06:00 12.2 96.0 1019.4 0.0 NE 3.2 0.0
06:05 12.2 96.0 1019.4 0.0 WNW 3.2 0.0
06:10 12.2 96.0 1019.4 0.0 WNW 1.6 0.0
06:15 12.2 96.0 1019.4 0.0 WNW 1.6 0.0
06:20 12.2 96.0 1019.4 1.6 WNW 3.2 0.0
06:25 12.2 96.0 1019.5 0.0 WNW 3.2 0.0
06:30 12.2 96.0 1019.5 0.0 WNW 1.6 0.0
06:35 12.2 96.0 1019.6 0.0 WNW 3.2 0.0
06:40 12.3 96.0 1019.6 0.0 WNW 3.2 0.0
06:45 12.3 96.0 1019.5 0.0 W 3.2 0.0
06:50 12.3 96.0 1019.5 0.0 W 3.2 0.0
06:55 12.4 96.0 1019.4 0.0 W 0.0 0.0
07:00 12.4 96.0 1019.5 3.2 N 4.8 0.0
07:05 12.3 96.0 1019.6 0.0 N 4.8 0.0
07:10 12.3 96.0 1019.7 0.0 NNE 3.2 0.0
07:15 12.5 96.0 1019.9 0.0 W 4.8 0.0
07:20 12.7 96.0 1020.0 0.0 WSW 4.8 0.0
07:25 12.8 96.0 1020.1 0.0 WSW 4.8 0.0
07:30 12.9 96.0 1019.8 1.6 WSW 3.2 0.0
07:35 12.9 96.0 1020.0 0.0 WSW 3.2 0.0
07:40 13.2 96.0 1020.0 3.2 NE 6.4 0.0
07:45 13.3 96.0 1019.9 1.6 NE 8.0 0.0
07:50 13.5 96.0 1019.8 3.2 NNE 8.0 0.0
07:55 13.7 96.0 1019.9 0.0 NNE 6.4 0.0
08:00 13.8 96.0 1019.8 0.0 NNW 4.8 0.0
08:05 13.9 96.0 1020.0 0.0 WNW 8.0 0.0
08:10 13.9 95.0 1019.9 1.6 N 8.0 0.0
08:15 14.0 95.0 1019.9 0.0 N 6.4 0.0
08:20 14.1 95.0 1019.9 1.6 NW 6.4 0.0
08:25 14.2 95.0 1020.0 3.2 N 6.4 0.0
08:30 14.3 94.0 1020.0 0.0 NE 6.4 0.0
08:35 14.4 93.0 1019.9 0.0 NE 4.8 0.0
08:40 14.6 92.0 1020.0 0.0 NE 0.0 0.0
08:45 14.8 92.0 1019.9 1.6 WNW 1.6 0.0
08:50 15.1 92.0 1019.8 4.8 N 4.8 0.0
08:55 15.4 90.0 1019.8 0.0 NE 8.0 0.0
09:00 15.6 89.0 1019.9 0.0 NE 4.8 0.0
09:05 15.9 88.0 1019.9 0.0 N 4.8 0.0
09:10 16.1 87.0 1019.9 0.0 NW 4.8 0.0
09:15 16.3 86.0 1019.8 0.0 NNW 3.2 0.0
09:20 16.7 84.0 1019.9 1.6 NNW 3.2 0.0
09:25 17.1 83.0 1019.7 0.0 NW 3.2 0.0
09:30 17.3 78.0 1019.7 0.0 WNW 4.8 0.0
09:35 17.6 78.0 1019.7 0.0 WNW 3.2 0.0
09:40 17.8 78.0 1019.7 0.0 WNW 0.0 0.2
09:45 18.2 77.0 1019.8 0.0 NW 3.2 0.0
09:50 18.4 74.0 1019.7 1.6 NNW 4.8 0.0
09:55 18.7 71.0 1019.7 0.0 SSE 4.8 0.0
10:00 19.0 72.0 1019.7 0.0 ENE 4.8 0.0
10:05 19.2 71.0 1019.7 0.0 ENE 4.8 0.0
10:10 19.4 72.0 1019.7 0.0 W 6.4 0.0
10:15 19.8 70.0 1019.7 0.0 W 9.7 0.0
10:20 20.2 66.0 1019.6 0.0 N 8.0 0.0
10:25 20.6 66.0 1019.6 1.6 NW 8.0 0.0
10:30 20.9 64.0 1019.6 0.0 NNE 8.0 0.0
10:35 21.3 65.0 1019.6 3.2 WNW 8.0 0.0
10:40 21.6 63.0 1019.5 0.0 WNW 6.4 0.0
10:45 21.9 62.0 1019.5 3.2 NNW 8.0 0.0
10:50 22.2 62.0 1019.5 0.0 NW 8.0 0.0
10:55 22.6 60.0 1019.4 0.0 NW 4.8 0.0
11:00 23.1 62.0 1019.5 9.7 W 9.7 0.0
11:05 23.3 60.0 1019.5 1.6 W 11.3 0.0
11:10 23.5 56.0 1019.4 3.2 N 11.3 0.0
11:15 23.9 58.0 1019.4 3.2 NW 6.4 0.0
11:20 24.1 55.0 1019.4 0.0 SSW 6.4 0.0
11:25 24.4 54.0 1019.4 3.2 WNW 4.8 0.0
11:30 24.8 52.0 1019.4 0.0 WNW 8.0 0.0
11:35 25.2 53.0 1019.3 1.6 WNW 9.7 0.0
11:40 25.4 52.0 1019.3 0.0 W 9.7 0.0
11:45 25.7 48.0 1019.2 0.0 W 9.7 0.0
11:50 25.8 49.0 1019.2 3.2 NNW 12.9 0.0
11:55 25.7 49.0 1019.1 0.0 N 11.3 0.0
12:00 25.8 49.0 1019.1 0.0 W 8.0 0.0
12:05 25.9 48.0 1019.0 3.2 W 8.0 0.0
12:10 26.1 48.0 1018.9 6.4 WNW 8.0 0.0
12:15 26.3 44.0 1018.9 1.6 WNW 8.0 0.0
12:20 26.6 41.0 1018.8 1.6 WSW 3.2 0.0
12:25 27.0 43.0 1018.8 1.6 WSW 3.2 0.0
12:30 27.3 40.0 1018.7 0.0 WSW 3.2 0.0
12:35 27.7 43.0 1018.8 3.2 WSW 4.8 0.0
12:40 27.9 42.0 1018.7 3.2 W 9.7 0.0
12:45 28.2 40.0 1018.6 8.0 WNW 11.3 0.0
12:50 28.2 39.0 1018.6 4.8 S 11.3 0.0
12:55 28.2 40.0 1018.6 3.2 WNW 6.4 0.0
13:00 28.4 37.0 1018.6 1.6 WNW 9.7 0.0
13:05 28.7 38.0 1018.5 0.0 W 9.7 0.0
13:10 28.9 35.0 1018.4 0.0 W 12.9 0.0
13:15 28.9 35.0 1018.3 6.4 WNW 11.3 0.0
13:20 29.1 33.0 1018.3 0.0 W 12.9 0.0
13:25 29.3 35.0 1018.2 4.8 W 12.9 0.0
13:30 29.4 32.0 1018.1 0.0 WNW 14.5 0.0
13:35 29.4 34.0 1018.2 8.0 WSW 16.1 0.0
13:40 29.4 35.0 1018.2 3.2 WNW 14.5 0.0
13:45 29.4 37.0 1018.0 4.8 WNW 12.9 0.0
13:50 29.6 36.0 1018.0 0.0 W 12.9 0.0
13:55 29.7 37.0 1018.0 0.0 WNW 12.9 0.0
14:00 29.7 37.0 1018.0 4.8 W 12.9 0.0
14:05 29.6 34.0 1017.9 1.6 SW 12.9 0.0
14:10 29.4 37.0 1017.8 0.0 W 12.9 0.0
14:15 29.6 37.0 1017.8 4.8 W 11.3 0.0
14:20 29.7 37.0 1017.9 0.0 W 14.5 0.0
14:25 29.6 37.0 1017.8 6.4 W 11.3 0.0
14:30 29.6 37.0 1017.8 0.0 W 6.4 0.0
14:35 29.4 38.0 1017.7 1.6 WNW 11.3 0.0
14:40 29.3 38.0 1017.8 4.8 W 14.5 0.0
14:45 29.3 38.0 1017.8 0.0 SW 14.5 0.0
14:50 29.1 39.0 1017.8 3.2 SSW 8.0 0.0
14:55 28.9 41.0 1017.8 3.2 W 12.9 0.0
15:00 28.9 42.0 1017.8 3.2 W 12.9 0.0
15:05 28.8 44.0 1017.7 6.4 WNW 9.7 0.0
15:10 28.9 43.0 1017.7 0.0 WNW 8.0 0.0
15:15 28.9 46.0 1017.6 17.7 WNW 17.7 0.0
15:20 28.8 48.0 1017.7 6.4 SW 17.7 0.0
15:25 28.4 46.0 1017.6 3.2 S 11.3 0.0
15:30 28.2 47.0 1017.6 14.5 SSE 14.5 0.0
15:35 27.9 50.0 1017.5 1.6 S 14.5 0.0
15:40 27.8 50.0 1017.5 1.6 W 9.7 0.0
15:45 27.9 51.0 1017.5 1.6 W 14.5 0.0
15:50 28.0 48.0 1017.5 9.7 SSE 14.5 0.0
15:55 27.9 48.0 1017.5 9.7 S 11.3 0.0
16:00 27.9 51.0 1017.5 4.8 SW 12.9 0.0
16:05 28.1 49.0 1017.5 6.4 S 12.9 0.0
16:10 28.1 50.0 1017.4 1.6 SSW 4.8 0.0
16:15 27.9 50.0 1017.3 0.0 S 4.8 0.0
16:20 27.8 49.0 1017.4 6.4 S 16.1 0.0
16:25 27.9 48.0 1017.3 9.7 SSE 16.1 0.0
16:30 27.9 48.0 1017.3 0.0 SSE 16.1 0.0
16:35 28.0 49.0 1017.3 3.2 SSW 11.3 0.0
16:40 28.0 49.0 1017.4 1.6 WNW 11.3 0.0
16:45 28.0 50.0 1017.5 9.7 S 12.9 0.0
16:50 27.8 52.0 1017.5 0.0 SSW 11.3 0.0
16:55 27.6 53.0 1017.5 1.6 S 6.4 0.0
17:00 27.2 54.0 1017.5 0.0 S 16.1 0.0
17:05 26.9 55.0 1017.4 0.0 S 16.1 0.0
17:10 26.7 55.0 1017.4 4.8 SSW 11.3 0.0
17:15 26.4 57.0 1017.4 3.2 S 11.3 0.0
17:20 26.3 57.0 1017.4 1.6 S 9.7 0.0
17:25 26.1 58.0 1017.4 6.4 S 8.0 0.0
17:30 25.8 59.0 1017.4 0.0 S 8.0 0.0
17:35 25.6 60.0 1017.4 4.8 S 14.5 0.0
17:40 25.3 61.0 1017.6 8.0 SSW 14.5 0.0
17:45 25.0 62.0 1017.6 0.0 S 11.3 0.0
17:50 24.8 63.0 1017.6 1.6 SSW 12.9 0.0
17:55 24.6 64.0 1017.7 1.6 SSE 12.9 0.0
18:00 24.5 64.0 1017.8 4.8 S 8.0 0.0
18:05 24.3 65.0 1017.9 4.8 S 9.7 0.0
18:10 24.2 65.0 1017.9 3.2 S 9.7 0.0
18:10 24.1 66.0 1017.9 0.0 S 9.7 0.0
18:20 23.9 66.0 1017.9 0.0 S 11.3 0.0
18:25 23.8 67.0 1018.0 1.6 S 11.3 0.0
18:30 23.6 67.0 1018.1 0.0 SSW 9.7 0.0
18:35 23.5 68.0 1018.3 0.0 S 11.3 0.0
18:40 23.3 68.0 1018.4 8.0 SSW 11.3 0.0
18:45 23.2 69.0 1018.5 1.6 S 8.0 0.0
18:50 23.0 69.0 1018.5 3.2 SSW 11.3 0.0
18:55 22.9 70.0 1018.6 0.0 SSW 11.3 0.0
19:00 22.8 70.0 1018.6 0.0 SW 8.0 0.0
19:05 22.7 70.0 1018.7 1.6 S 4.8 0.0
19:10 22.6 70.0 1018.7 0.0 S 4.8 0.0
19:15 22.4 71.0 1018.7 0.0 S 3.2 0.0
19:20 22.3 71.0 1018.8 0.0 S 3.2 0.0
19:25 22.2 71.0 1018.9 0.0 S 4.8 0.0
19:30 22.1 71.0 1019.0 0.0 S 4.8 0.0
19:35 22.1 72.0 1019.0 0.0 S 0.0 0.0
19:40 21.9 72.0 1019.1 0.0 S 0.0 0.0
19:45 21.8 72.0 1019.2 0.0 S 0.0 0.0
19:50 21.7 72.0 1019.3 0.0 S 0.0 0.0
19:55 21.6 73.0 1019.4 0.0 S 0.0 0.0
20:00 21.4 74.0 1019.4 0.0 S 0.0 0.0
20:05 21.3 73.0 1019.4 0.0 S 0.0 0.0
20:10 21.2 74.0 1019.5 0.0 S 0.0 0.0
20:15 21.1 75.0 1019.5 0.0 S 0.0 0.0
20:20 20.9 75.0 1019.5 0.0 S 0.0 0.0
20:25 20.8 76.0 1019.7 0.0 S 3.2 0.0
20:30 20.7 76.0 1019.8 0.0 S 1.6 0.0
20:35 20.6 76.0 1019.8 0.0 S 0.0 0.0
20:40 20.5 76.0 1019.8 0.0 S 0.0 0.0
20:45 20.3 76.0 1019.8 0.0 S 0.0 0.0
20:50 20.2 76.0 1019.9 0.0 S 0.0 0.0
20:55 20.1 77.0 1019.8 0.0 S 0.0 0.0
21:00 19.9 77.0 1019.9 0.0 S 0.0 0.0
21:05 19.7 77.0 1019.9 0.0 S 0.0 0.0
21:10 19.6 78.0 1019.9 0.0 S 0.0 0.0
21:15 19.5 78.0 1020.0 0.0 S 0.0 0.0
Màxima 29.7 96.0 1020.1 17.7 WNW 17.7 0.2
Mínima 12.1 32.0 1017.3
Total 0.2